Wind_Speed
25 25 27 28 27 28 28 28 28 28 28 29 30 29 29 28 27 26 25 24 22 20 19 17 17 18 18 18 18 17 17 17 18 19 19 18 17 17 17 16 16 15 14 13 12 12 12 12 12 12 12 13 13 15 15 15 14 14 13 12 9 5 3 6 7 7 7 6 6 5 6 6 5 5 5 4 4 3 3 3 5 5 6 6 5 5 5 5
26 26 27 28 28 28 28 29 29 29 30 30 30 30 30 29 28 27 25 24 22 20 19 17 17 18 19 18 17 17 17 18 19 19 18 18 18 17 16 16 15 15 14 13 12 12 11 12 13 13 12 13 14 14 15 15 14 14 14 13 10 5 6 8 6 8 7 6 5 5 6 5 3 4 5 5 5 4 4 4 5 5 4 5 6 6 6 6
27 26 27 29 29 28 29 29 30 30 30 30 30 30 30 29 28 27 26 24 22 21 19 18 18 18 19 18 17 17 17 18 18 18 18 18 17 17 16 16 15 14 13 13 12 11 10 10 12 13 13 13 14 14 14 15 14 14 14 14 11 7 8 9 7 9 8 8 7 6 6 3 3 4 5 6 5 4 4 5 5 5 4 5 6 6 6 6
29 27 28 29 29 29 30 30 30 30 30 31 31 30 30 29 28 27 26 24 23 21 20 19 19 19 19 18 17 17 17 18 18 18 18 18 18 17 16 16 15 14 14 13 12 12 11 10 11 13 13 13 14 14 14 14 14 14 14 14 14 11 10 9 8 10 12 12 8 7 7 4 3 4 5 7 5 4 6 6 5 5 5 6 6 7 6 6
30 29 29 28 29 29 30 30 30 30 30 30 31 30 30 29 28 27 26 25 23 22 20 19 19 19 19 18 18 17 17 16 17 18 19 18 18 17 16 16 15 14 14 13 12 12 11 11 11 12 12 13 13 14 14 14 14 14 14 15 14 13 11 11 11 12 14 14 9 7 7 5 5 6 7 6 4 6 7 6 4 5 6 6 6 6 6 7
32 31 30 29 29 30 30 31 31 31 31 30 31 31 30 29 28 27 26 25 24 22 21 20 19 19 19 18 18 17 17 15 15 18 19 18 18 17 17 16 15 15 14 14 13 12 11 11 11 11 12 11 12 13 13 13 13 13 15 15 15 13 12 12 12 12 14 13 10 7 6 5 6 8 8 5 5 8 7 5 4 3 5 6 6 6 6 7
34 32 31 30 29 29 30 30 31 31 31 31 31 31 30 30 29 28 27 26 25 23 22 21 20 20 19 19 18 18 18 15 14 18 19 18 18 17 17 16 16 15 14 14 13 12 12 12 11 11 12 12 13 14 13 12 13 13 14 15 15 14 13 13 12 12 12 11 9 7 7 7 7 9 6 3 6 9 7 7 7 5 4 6 7 7 8 8
36 34 32 31 30 30 29 30 31 32 31 31 31 31 31 30 29 28 27 26 25 24 22 22 21 20 20 19 19 18 19 16 14 17 19 18 18 18 17 17 16 16 15 14 13 13 13 12 13 13 13 13 13 12 12 12 13 14 14 14 14 13 13 13 12 12 10 9 8 8 8 7 7 9 6 3 7 9 8 8 9 8 6 6 7 9 9 10
37 36 34 32 32 30 30 29 30 31 31 31 32 32 31 31 30 29 28 26 25 24 23 23 22 21 21 20 21 19 19 18 14 15 18 18 18 17 17 16 16 16 16 15 15 14 13 14 15 15 15 14 13 12 12 12 12 14 14 12 11 10 11 11 11 10 9 9 8 8 8 7 7 8 5 5 8 10 10 9 9 9 8 8 8 9 10 11
38 37 35 33 32 31 30 30 30 31 31 31 31 31 31 31 30 29 28 27 26 25 24 24 23 22 22 22 21 20 19 19 16 13 15 17 17 17 16 16 17 17 16 15 15 14 14 15 16 16 15 15 14 11 11 11 12 13 13 11 9 9 9 10 9 9 8 8 8 8 8 7 8 8 4 5 8 10 11 9 9 10 9 9 9 10 11 12
39 38 36 34 32 31 30 30 30 30 30 30 30 30 30 30 30 29 28 27 26 25 25 24 23 23 23 23 21 20 18 19 19 15 13 15 17 17 16 16 16 17 16 15 14 14 14 14 15 15 15 14 14 11 10 11 11 11 10 9 9 9 9 9 9 8 8 8 8 9 9 8 8 7 5 7 8 9 11 9 7 8 9 9 9 9 11 11
39 38 37 34 33 32 31 30 29 29 29 29 29 29 29 29 29 29 28 27 26 26 25 25 24 24 24 23 21 20 19 19 20 18 14 14 15 16 16 16 16 16 15 15 14 15 15 14 14 14 15 14 13 10 10 11 11 10 9 9 10 10 9 9 8 9 8 7 9 9 9 8 8 8 7 8 8 8 9 7 6 7 8 9 9 9 10 10
39 38 37 35 34 33 31 30 28 28 28 29 29 28 28 28 28 28 27 27 26 26 26 25 25 25 24 24 23 22 21 19 20 20 18 15 14 15 16 16 16 15 15 15 14 15 15 14 14 15 16 14 12 11 9 11 12 10 10 10 10 10 9 9 8 9 8 7 9 10 9 5 6 8 8 7 7 7 7 7 7 7 8 9 10 11 10 11
38 38 37 36 35 33 31 29 28 27 27 27 27 27 27 27 27 27 26 26 26 26 26 25 25 25 25 25 24 24 23 21 20 21 20 17 15 14 15 15 15 15 14 15 15 15 15 15 15 16 16 14 13 12 8 9 12 12 11 10 11 11 9 9 9 8 8 7 8 11 11 7 7 10 9 7 7 7 8 9 10 9 9 10 11 12 11 12
38 38 37 36 35 34 32 30 28 27 26 26 26 26 25 25 25 25 25 26 26 26 26 26 25 26 26 26 25 25 25 24 21 20 20 19 16 14 14 14 14 14 14 14 15 15 15 15 15 16 17 15 13 13 9 8 10 13 11 8 10 12 10 9 9 9 8 8 9 11 11 9 8 9 10 9 8 9 10 10 11 12 12 13 13 12 12 13
38 38 37 36 34 33 32 31 29 27 26 25 24 24 24 24 24 25 25 26 26 26 26 26 26 27 26 26 26 27 27 25 22 20 20 19 17 15 14 14 14 13 14 14 14 15 15 15 16 16 17 16 12 12 11 9 9 11 10 7 7 9 10 9 9 10 9 9 10 12 12 11 10 10 11 11 10 11 12 12 13 14 14 15 15 13 12 12
36 36 36 36 34 33 32 31 29 27 26 24 24 24 23 23 24 24 25 25 26 27 27 27 27 27 25 26 28 28 27 25 23 20 19 19 18 17 16 14 14 13 13 14 14 15 15 16 17 17 16 15 14 13 12 11 11 11 10 10 8 7 7 8 8 9 9 10 11 13 16 15 13 13 14 14 14 15 15 13 13 14 15 16 15 14 12 12
34 35 35 35 34 33 32 31 29 27 26 25 25 24 24 24 24 25 25 26 27 27 27 28 29 28 26 28 29 27 26 25 24 21 19 18 18 17 17 15 14 15 14 15 15 15 16 16 16 17 16 16 16 17 14 11 9 9 10 10 10 9 8 7 8 9 11 13 14 16 20 18 14 15 16 15 15 17 17 15 14 14 14 15 15 15 14 14
32 33 33 33 33 33 32 31 29 28 28 27 26 26 25 25 25 25 26 27 29 29 29 30 33 31 26 26 27 25 25 25 24 24 21 19 18 18 17 16 16 16 16 16 16 16 16 16 17 18 18 18 17 18 16 9 5 7 10 10 10 10 10 10 10 10 11 14 17 19 21 21 18 17 16 15 16 19 19 17 15 13 13 14 14 15 16 15
31 31 31 32 32 32 31 30 30 29 29 28 28 27 27 28 28 29 29 30 30 32 32 31 33 32 24 21 24 25 24 26 26 25 23 20 19 19 18 18 18 17 17 17 16 17 17 17 19 18 16 16 16 15 14 12 9 8 8 9 10 10 11 11 10 10 11 14 17 19 22 24 22 19 17 16 17 19 19 17 15 14 14 14 14 14 14 14
31 30 30 31 31 31 30 30 30 30 29 29 28 28 29 30 30 31 31 31 30 31 32 30 29 31 27 19 20 24 24 25 26 25 24 23 21 20 19 19 19 18 17 17 17 17 17 19 18 16 14 14 13 12 13 15 15 13 10 10 12 11 11 12 12 14 15 17 20 21 24 26 24 22 20 19 19 19 18 17 16 14 15 15 15 14 13 12
31 30 30 30 30 30 30 31 30 30 29 29 28 28 28 28 27 26 26 28 29 29 30 30 28 29 30 22 18 22 25 25 26 26 26 25 23 21 20 20 19 18 18 19 19 18 19 20 16 14 14 14 13 11 12 15 16 17 16 15 14 13 14 14 13 15 16 19 21 21 25 29 27 25 24 22 22 20 18 18 17 16 17 16 14 14 13 13
32 31 30 30 30 30 30 31 30 30 29 28 27 27 25 25 24 23 22 24 27 28 29 30 29 27 28 28 22 20 24 25 24 25 27 26 24 22 21 20 18 18 19 19 19 20 18 16 15 15 16 14 13 11 11 13 16 17 19 19 18 17 16 14 13 14 15 19 21 23 28 32 30 29 27 25 25 23 19 17 15 14 14 13 13 15 15 14
32 32 31 31 30 30 31 30 30 29 28 27 27 26 25 24 23 22 21 22 25 28 29 29 29 27 26 28 27 20 19 23 23 24 26 26 24 24 22 20 19 20 21 19 18 19 16 13 14 16 16 16 15 14 13 14 16 17 18 18 17 16 15 14 14 15 16 20 22 24 29 33 33 30 27 25 23 19 15 13 11 12 14 14 15 16 16 14
31 31 31 31 31 31 30 30 31 29 28 27 26 25 25 23 23 22 21 21 23 26 28 30 30 29 27 27 28 25 20 21 24 24 24 25 24 25 23 21 21 22 21 19 18 19 18 16 15 15 15 17 18 18 17 17 18 19 18 18 16 13 13 14 15 16 17 19 20 19 17 20 26 26 24 24 23 20 18 17 15 14 16 16 16 16 14 12
30 30 30 30 30 31 31 31 31 30 29 28 27 26 25 24 23 22 21 19 21 26 30 32 32 30 30 29 29 29 25 22 23 24 24 24 25 25 24 23 23 22 20 19 18 19 19 18 17 16 15 16 18 18 19 19 19 19 19 16 14 13 13 15 16 15 14 14 18 18 12 16 30 34 30 28 28 26 22 19 17 15 14 14 14 13 11 11
30 29 29 29 30 30 31 31 30 31 30 28 28 27 25 25 23 23 21 9 14 27 31 32 34 33 33 32 30 31 29 27 25 25 24 25 26 26 24 25 25 22 20 18 19 20 20 20 19 19 18 18 19 18 16 16 16 18 18 15 13 13 13 14 15 14 15 18 23 23 19 21 31 36 32 29 28 26 23 21 18 14 14 15 14 12 9 9
32 30 27 26 28 30 30 30 29 31 29 27 28 27 26 26 23 24 19 3 6 22 29 33 34 32 31 32 32 33 31 30 28 27 27 25 25 25 24 25 24 21 20 21 23 22 20 20 20 20 21 21 21 19 16 15 14 16 15 14 13 12 13 13 13 14 17 21 23 21 16 14 23 32 29 27 28 26 24 19 13 11 14 14 13 11 9 9
32 32 30 27 27 28 28 28 28 29 28 28 27 27 27 25 24 23 13 4 8 16 24 32 34 32 32 32 34 36 35 31 28 28 29 26 24 24 23 24 23 21 21 23 24 22 20 20 19 20 22 23 22 20 19 18 17 16 15 14 14 13 13 12 13 16 17 17 19 17 10 9 20 28 22 19 21 19 16 9 5 9 10 11 13 13 11 10
31 32 32 32 30 26 25 26 26 26 27 28 27 28 27 25 28 22 7 9 17 16 19 28 34 35 34 35 36 38 38 34 30 27 28 30 28 25 23 22 23 24 24 24 24 24 24 21 20 20 21 22 22 21 21 20 19 18 16 15 13 13 13 12 15 17 13 12 15 13 10 11 11 12 11 10 8 6 6 5 9 9 11 16 17 16 12 10
31 32 32 33 31 27 25 25 25 26 26 27 27 28 28 27 29 18 6 16 21 17 21 25 32 37 37 38 39 39 39 36 32 29 28 30 31 29 27 25 25 24 25 27 27 28 27 24 23 24 23 23 22 22 21 19 19 18 16 15 12 9 10 11 14 12 6 7 9 7 9 13 14 10 5 3 8 5 6 8 9 15 19 18 15 12 10 10
31 32 32 33 31 30 29 26 26 26 26 28 28 29 31 27 24 18 16 22 16 14 27 28 29 37 38 38 38 38 40 37 35 34 31 30 30 32 32 31 30 25 23 28 28 28 30 30 28 26 26 25 22 20 19 19 20 20 18 17 11 4 3 6 6 4 7 10 9 4 5 14 28 29 15 7 8 7 9 14 20 20 16 15 12 8 10 10
31 30 30 32 33 32 32 29 29 28 28 30 28 31 33 21 18 29 33 27 12 10 25 28 26 32 34 36 37 36 37 37 37 38 35 32 30 30 31 32 34 30 26 28 29 27 26 28 33 32 29 28 27 24 22 21 21 23 24 22 15 5 2 3 4 1 7 12 10 7 9 16 28 33 25 20 17 14 17 19 12 4 3 6 6 8 8 14
35 32 29 30 32 32 33 33 32 31 29 31 31 33 32 19 21 38 41 31 13 7 19 27 25 28 30 34 37 37 35 34 36 37 37 36 34 33 34 33 35 35 31 26 27 30 23 19 28 33 31 31 31 30 26 22 20 22 25 24 22 18 10 5 3 4 6 6 6 8 9 12 15 15 15 14 12 12 12 9 7 3 8 7 10 13 18 21
35 33 30 32 34 32 34 36 35 35 33 32 34 35 32 28 32 41 42 35 19 10 17 25 25 26 29 30 33 35 36 34 34 35 36 39 40 40 39 37 36 36 35 28 24 27 25 22 24 23 24 27 28 28 28 25 21 20 21 23 27 30 24 11 5 8 6 3 5 12 15 22 23 21 19 12 8 7 9 10 6 12 14 14 16 18 17 15
26 25 26 33 38 34 34 36 35 36 37 36 36 38 39 38 37 37 38 36 26 17 17 20 24 27 29 30 31 33 35 34 32 33 35 37 41 43 41 40 40 38 38 34 26 23 21 21 23 20 20 22 21 22 26 27 24 20 24 31 30 27 25 18 10 9 6 4 10 15 23 35 36 34 33 26 23 19 15 15 15 12 12 13 11 10 10 12
19 18 19 26 37 39 36 36 36 36 38 39 39 42 46 43 36 29 29 32 33 29 21 19 23 26 29 31 32 33 34 32 30 31 34 35 35 40 43 41 41 41 40 38 32 28 21 17 20 23 23 22 21 21 23 27 28 26 29 32 29 21 20 20 9 3 2 4 10 15 26 35 30 26 23 15 13 16 15 16 18 19 19 15 11 10 11 11
17 17 17 18 29 40 40 37 35 33 35 40 45 46 45 43 39 30 25 27 32 34 30 24 23 24 28 31 33 34 34 32 31 31 33 33 31 36 41 41 41 40 40 38 34 32 26 18 18 21 22 22 22 22 24 28 32 34 32 28 23 17 15 18 11 2 3 2 6 15 22 31 37 36 27 15 13 16 20 23 24 23 18 13 11 10 11 10
19 19 19 17 20 31 40 41 36 30 30 38 48 50 46 44 42 35 28 24 25 30 32 29 26 25 27 29 31 34 34 33 34 33 32 32 32 34 36 38 39 39 39 39 37 34 29 22 18 21 23 22 24 27 31 34 34 36 34 28 25 20 14 19 19 11 6 4 5 11 12 24 40 41 32 28 27 27 26 23 20 16 11 11 11 13 13 11
22 22 21 20 20 21 29 35 36 33 30 33 41 48 49 46 44 40 34 27 24 26 27 27 28 28 28 28 28 29 33 34 35 35 33 32 33 34 33 33 34 35 35 37 39 36 30 26 22 21 22 24 29 32 35 36 34 35 35 31 31 29 20 17 21 22 16 6 3 3 8 27 40 32 28 29 25 23 21 14 8 6 10 15 17 14 14 14
25 24 21 21 22 21 20 24 29 32 33 33 35 39 42 43 45 44 40 32 28 28 27 24 26 29 30 31 30 29 30 32 34 36 35 35 35 34 33 32 32 31 30 33 38 37 34 32 27 22 24 29 34 34 32 33 32 34 36 35 37 37 30 17 12 22 24 14 8 4 9 35 42 30 27 25 18 16 14 7 9 11 9 13 16 15 16 16
26 26 23 21 22 23 21 21 24 26 28 32 35 37 36 37 41 43 43 39 33 30 28 25 24 27 30 32 33 33 31 30 32 35 36 36 35 34 31 30 29 29 29 31 32 34 36 35 32 30 32 34 33 31 31 32 33 35 36 37 38 39 41 30 13 15 21 21 24 16 13 37 42 27 23 23 17 13 9 8 10 8 9 15 19 19 17 16
25 25 24 22 21 22 22 22 24 26 25 26 30 33 33 33 34 39 43 43 40 35 31 29 26 26 28 30 32 33 33 32 33 35 35 34 34 33 31 29 28 26 27 29 28 29 32 33 31 30 30 30 29 29 32 31 33 38 40 41 40 38 42 38 27 23 19 22 29 16 11 35 39 21 14 12 9 9 9 9 11 11 14 17 19 20 18 19
24 25 25 22 20 22 25 26 27 29 28 26 26 27 29 30 31 33 36 40 44 43 37 33 31 29 28 29 30 31 32 32 33 35 37 36 36 35 33 33 33 30 29 29 28 28 29 32 30 20 13 15 17 19 26 31 34 37 40 40 41 40 38 35 34 29 19 25 33 18 14 38 37 21 15 10 7 8 9 10 12 12 16 17 20 22 23 26
24 25 26 26 23 24 27 27 29 30 29 28 29 29 29 29 28 29 31 33 39 43 42 39 36 33 31 30 30 31 32 33 32 33 35 38 38 38 36 36 36 36 34 32 29 28 29 34 35 24 13 11 13 16 25 33 35 37 40 40 41 41 39 38 37 29 23 34 40 27 29 46 43 30 26 23 20 20 17 16 17 19 21 23 25 26 30 33
26 25 26 28 29 29 28 26 27 29 31 30 30 31 31 31 29 28 29 30 31 33 37 40 39 37 35 33 31 31 33 35 35 33 33 35 37 38 38 38 38 38 38 35 32 30 30 34 37 36 33 31 32 33 35 35 35 38 41 43 43 42 42 42 38 35 37 41 40 39 46 54 51 44 39 38 38 35 30 27 27 27 26 26 27 29 32 32
28 29 28 28 28 30 31 29 27 28 30 30 30 32 33 33 32 29 28 28 28 26 27 31 34 36 36 35 34 33 34 37 39 38 35 33 35 38 38 38 39 40 39 38 35 33 32 34 36 39 42 42 42 41 38 34 34 36 36 39 41 41 43 45 43 45 47 37 33 45 52 51 55 53 47 45 45 42 40 36 33 30 27 28 32 35 34 31
30 30 29 27 27 29 32 35 35 32 29 27 28 30 32 32 33 32 31 30 29 29 27 27 29 32 34 36 36 36 35 36 38 42 40 35 34 36 38 38 37 39 39 38 37 37 36 36 38 40 40 41 41 39 38 36 34 32 31 31 34 37 42 47 49 52 51 41 39 49 50 50 55 51 44 44 43 42 42 40 38 36 34 34 36 36 36 36
32 31 29 29 30 30 31 34 36 36 33 29 28 29 29 30 32 33 32 29 29 30 30 30 32 31 30 31 34 38 38 37 37 40 41 39 36 34 35 35 35 37 38 36 37 38 36 36 38 39 39 41 41 39 39 36 30 28 28 27 28 31 37 43 45 46 48 49 49 49 48 51 52 48 45 46 43 43 43 42 42 41 37 36 36 38 41 41
34 33 30 30 33 34 33 31 32 35 35 34 33 33 31 31 31 30 30 29 30 31 31 33 35 33 31 30 31 34 37 39 40 40 39 39 38 36 33 31 32 36 37 37 37 37 37 35 35 36 36 39 43 42 40 37 31 28 28 29 31 33 36 41 43 41 44 49 50 48 50 55 54 49 48 48 47 47 47 46 46 44 42 42 42 43 43 41
35 34 32 31 32 34 34 33 31 32 34 36 38 39 37 35 33 30 28 29 29 29 30 32 32 30 31 31 32 33 32 32 35 38 40 37 33 32 29 25 26 30 33 36 35 35 37 36 35 34 32 37 45 42 38 38 33 29 32 35 38 40 41 43 44 42 44 48 48 48 52 58 57 52 49 50 50 49 47 47 46 44 45 44 43 43 42 39
36 35 34 33 34 33 33 34 33 32 34 36 39 40 40 39 36 30 28 28 29 28 27 27 26 25 28 31 34 37 33 29 28 29 32 34 32 32 30 27 26 26 28 32 32 32 35 35 35 32 27 36 45 38 32 30 22 25 42 49 47 44 42 41 43 45 46 47 47 48 53 56 55 51 48 50 50 47 46 48 48 46 45 43 40 40 39 36
Wind_Direction
207 205 202 198 193 188 183 183 184 185 183 182 181 182 183 185 186 185 185 184 183 183 182 183 185 186 188 189 191 193 193 193 192 191 189 186 182 182 182 180 180 182 184 184 185 185 181 176 177 180 180 183 188 191 193 193 195 193 191 190 185 183 206 208 204 220 230 220 222 240 258 271 273 252 241 239 234 229 228 206 216 222 217 220 213 208 211 214
207 206 204 200 195 190 185 184 185 185 184 183 182 183 184 185 186 186 187 186 185 184 183 185 186 187 189 191 194 196 195 194 193 189 187 186 184 184 184 183 182 183 185 185 187 189 187 184 180 180 184 185 185 187 189 193 195 193 194 194 193 205 204 196 208 230 239 242 246 268 263 253 247 244 234 231 228 217 226 220 228 239 229 227 223 220 223 220
208 206 206 203 198 193 188 185 185 185 184 184 184 185 185 185 186 187 187 187 186 185 185 186 188 189 191 193 196 197 196 195 192 188 187 188 186 186 186 186 185 184 186 187 188 189 188 194 191 184 185 187 185 186 187 191 195 195 196 196 196 199 186 185 214 238 253 263 268 275 267 243 219 241 228 222 222 210 225 223 222 241 239 234 235 230 228 227
208 207 207 205 200 196 191 188 187 186 185 184 185 186 186 186 186 187 187 188 188 187 187 187 189 191 193 195 197 197 195 195 192 189 189 190 189 190 189 188 188 187 188 189 190 190 185 193 200 192 187 190 188 184 185 190 194 195 196 198 202 200 188 189 213 236 254 265 269 260 258 250 220 232 231 224 221 211 223 224 215 227 237 237 240 237 232 228
208 207 207 206 203 199 194 190 188 187 186 185 186 186 187 187 187 188 188 189 189 189 189 189 191 193 195 196 197 196 194 194 192 191 192 192 192 193 192 192 191 191 192 191 192 193 190 192 200 198 193 193 191 186 186 192 193 197 199 201 207 206 203 211 225 242 256 264 261 243 244 243 225 228 234 236 234 231 233 234 224 219 234 246 247 239 232 229
209 208 207 207 205 201 197 193 190 188 188 187 187 187 188 188 188 189 189 190 190 190 190 190 192 194 196 196 197 196 191 192 191 191 194 194 195 196 196 197 195 195 195 195 195 195 194 196 197 199 199 196 195 192 188 191 193 199 205 208 213 214 216 224 232 243 251 256 253 242 239 231 228 233 241 250 245 250 260 267 264 229 224 235 241 237 228 227
209 208 207 208 207 204 199 195 191 190 189 188 188 189 189 189 189 190 190 190 190 191 191 192 193 194 197 197 198 196 190 190 189 192 196 196 197 199 200 201 201 200 199 198 199 198 196 197 196 197 200 196 198 197 190 193 198 203 210 213 219 223 227 233 239 245 247 247 240 231 225 221 229 240 247 248 241 256 272 280 286 278 247 230 230 234 232 234
209 209 208 209 210 207 202 197 193 192 191 190 189 189 189 190 190 190 190 190 190 191 192 193 194 195 197 198 199 197 191 189 190 193 198 199 200 201 202 204 205 204 204 203 203 203 199 196 194 194 198 199 200 200 192 194 203 211 217 219 224 231 235 239 242 246 245 242 237 230 228 228 235 244 246 221 234 257 268 271 277 277 270 253 240 239 240 243
209 210 209 209 211 211 207 200 196 194 194 192 191 191 190 191 191 191 191 191 191 192 193 194 195 196 197 198 199 198 193 192 191 194 199 201 201 203 204 206 207 207 207 207 206 205 202 200 198 196 198 202 202 202 197 200 209 217 221 223 230 237 237 240 242 245 245 242 241 236 235 236 242 250 249 225 231 251 268 271 273 275 274 265 254 250 250 252
209 210 209 209 211 213 211 205 200 197 197 196 194 193 192 192 192 192 192 192 192 193 195 195 196 197 197 199 200 198 197 196 193 193 199 202 203 204 206 207 209 210 209 211 211 208 207 206 204 202 201 203 205 204 203 206 212 220 228 228 233 241 238 240 242 243 245 244 245 244 243 241 248 256 250 230 231 246 266 274 273 275 275 268 261 257 257 259
208 210 210 209 211 214 214 210 205 202 201 200 198 196 195 194 194 194 194 194 194 195 197 197 197 198 199 201 199 198 200 200 198 196 196 201 204 205 207 210 211 212 211 213 215 212 211 209 210 208 202 205 208 208 210 214 216 222 230 232 233 237 237 239 243 244 244 246 248 247 246 242 244 249 239 240 242 249 264 273 275 275 275 275 271 265 261 261
207 209 210 209 210 214 215 213 210 207 205 203 202 201 199 197 196 196 196 195 196 197 198 198 199 199 201 202 198 198 202 202 202 202 200 199 202 206 209 212 214 214 213 214 216 216 213 209 209 208 205 207 206 206 211 212 214 217 225 233 232 233 237 239 242 244 241 244 250 252 255 250 238 234 233 242 246 249 259 267 273 272 273 277 278 276 272 267
206 207 208 209 210 213 215 215 213 211 209 206 206 205 203 202 199 199 198 197 198 199 200 200 201 200 202 202 198 199 203 203 204 205 205 203 202 206 211 214 216 216 216 216 216 217 216 209 204 208 210 208 203 201 206 207 210 215 223 233 236 238 241 240 240 243 242 240 247 256 258 242 222 230 237 240 236 240 255 269 275 274 272 274 278 280 280 277
205 206 207 208 209 211 214 215 214 214 212 210 209 208 207 206 203 202 200 199 199 200 202 202 202 202 203 203 200 200 203 204 205 205 206 206 205 208 210 215 217 217 218 219 217 216 217 211 205 208 210 208 204 199 192 198 207 215 223 233 242 244 243 239 237 240 242 241 245 258 260 249 236 246 251 240 229 240 260 273 279 280 280 279 278 280 283 282
205 205 206 207 208 209 212 214 215 214 214 213 212 211 210 208 206 204 202 201 201 201 202 203 204 203 204 205 202 203 205 205 206 205 205 206 206 208 211 214 216 217 219 219 219 216 214 212 209 209 209 208 203 197 189 184 200 214 221 226 238 244 248 249 245 246 250 252 253 260 265 260 247 250 259 253 243 249 257 265 275 280 284 283 282 284 285 283
204 204 205 206 206 207 209 212 214 214 215 214 213 213 212 210 208 206 204 203 201 202 202 202 204 204 205 207 206 206 207 206 206 206 206 205 206 208 212 214 216 218 218 218 219 216 214 212 209 210 212 208 201 199 201 197 200 214 218 218 229 239 248 251 254 258 261 261 258 259 261 261 259 261 265 266 265 264 263 267 274 278 280 281 285 288 286 283
203 203 204 205 205 206 208 209 212 213 213 213 212 212 211 209 208 207 205 203 202 203 202 202 204 205 207 209 209 208 208 208 208 208 208 206 206 210 212 213 215 216 217 217 217 215 213 211 209 211 211 208 205 204 203 205 208 214 219 224 228 233 245 251 253 260 266 270 268 264 263 261 264 269 270 273 278 276 273 274 276 279 281 284 287 288 285 280
201 203 203 204 205 206 207 208 209 210 210 210 209 209 208 207 207 206 205 203 202 202 202 204 203 203 209 212 209 208 208 208 209 210 211 209 208 212 214 215 216 216 216 215 214 215 212 211 210 208 207 205 208 210 207 206 211 218 223 225 228 230 238 253 262 267 272 275 275 270 269 267 264 265 266 271 278 280 281 282 282 283 285 286 288 287 285 280
199 200 201 202 204 205 206 206 206 206 206 206 206 205 205 205 204 205 204 203 202 201 202 205 204 203 210 213 210 209 209 208 210 211 211 210 209 212 214 216 217 217 217 214 212 214 213 213 212 209 210 209 211 215 213 203 195 218 228 229 232 228 228 239 254 264 268 271 274 273 275 274 268 261 258 262 268 273 277 281 284 286 285 283 282 282 282 283
199 198 198 199 201 203 204 203 203 204 203 203 203 203 203 202 201 201 202 202 203 204 204 206 207 206 211 214 211 210 209 209 211 211 212 211 210 212 214 215 217 217 218 218 215 215 214 216 217 216 217 216 216 218 215 203 194 216 231 227 228 225 222 227 237 256 268 273 275 278 279 275 271 269 265 262 261 263 271 279 283 285 284 282 280 278 277 279
199 198 197 197 199 200 201 201 202 202 202 202 202 203 204 204 203 204 202 200 202 206 208 209 208 208 209 210 210 210 210 211 211 211 212 213 212 212 213 214 216 216 216 217 216 216 217 218 220 220 221 220 215 213 217 213 209 219 227 221 221 219 222 229 242 261 275 279 276 279 280 274 272 273 272 269 265 265 272 279 282 285 285 285 285 283 275 270
201 200 199 197 198 198 199 200 200 201 201 202 203 205 207 207 208 210 207 204 205 206 209 211 211 210 208 206 208 209 210 211 211 210 211 213 214 213 213 214 215 216 217 217 215 215 217 220 219 216 216 217 212 207 214 219 220 224 228 231 230 229 239 249 257 267 275 279 279 283 282 275 273 275 275 273 271 271 274 277 280 283 282 282 283 280 271 269
203 202 201 200 199 199 200 200 200 201 201 202 204 206 208 208 209 210 209 208 210 210 211 214 214 212 209 207 209 209 210 211 211 211 212 213 214 214 215 214 211 213 217 217 216 217 219 219 216 213 213 212 211 214 219 221 227 232 235 241 243 244 255 264 266 268 272 278 282 287 285 278 274 275 276 275 274 275 275 276 278 278 278 279 278 275 272 275
202 203 202 202 200 200 201 202 202 202 203 205 207 208 208 207 208 208 207 207 211 213 213 215 217 215 211 209 210 210 209 211 211 212 214 214 214 215 217 215 211 214 218 218 219 223 223 216 210 213 216 213 208 211 216 221 229 237 241 246 250 252 257 263 268 273 278 283 285 289 290 284 279 279 280 279 276 275 274 273 272 272 275 276 273 272 273 277
200 203 203 203 203 203 203 204 205 205 207 209 210 211 209 207 206 206 206 207 212 214 213 215 218 217 213 210 212 212 210 209 208 209 213 214 215 217 216 214 214 216 219 219 221 227 226 219 214 213 218 220 218 216 216 221 231 241 248 250 253 255 255 259 267 276 283 284 286 294 299 287 281 280 279 280 279 278 279 277 275 275 276 272 267 268 272 276
199 201 204 204 205 206 206 207 207 208 209 210 211 212 210 207 205 203 201 208 219 216 211 213 215 216 213 210 211 212 214 214 208 207 210 209 214 217 215 216 218 218 220 221 225 231 228 224 223 218 219 224 226 226 224 227 235 244 251 253 250 250 253 256 263 270 277 280 283 289 288 281 283 281 277 279 280 280 281 281 281 279 272 264 262 266 271 275
198 199 201 203 205 207 209 209 210 210 210 209 210 210 209 206 203 200 196 206 235 220 213 213 213 214 212 210 210 210 214 215 206 205 208 206 211 215 214 217 219 217 218 217 220 229 227 222 222 221 221 226 229 230 229 231 237 243 249 251 248 248 248 252 262 267 276 284 284 284 280 277 281 283 282 282 281 282 284 283 283 279 267 260 261 265 267 270
198 199 198 198 202 205 207 208 209 211 210 208 207 206 205 201 197 196 191 173 234 214 213 214 213 214 212 209 211 213 217 218 208 205 207 205 209 212 214 219 221 220 220 219 220 228 231 227 226 227 228 232 236 236 236 237 240 243 245 243 239 240 241 248 262 272 287 293 286 280 278 270 275 283 288 286 285 286 287 286 281 264 256 256 262 269 271 265
195 198 198 198 200 201 202 203 205 208 207 203 203 201 198 194 189 186 183 187 204 204 210 211 210 212 210 207 210 213 218 220 214 210 210 209 209 211 213 217 220 221 220 223 227 231 235 234 232 233 234 238 241 243 243 242 244 245 241 232 227 230 239 251 268 279 292 289 276 275 272 265 280 287 288 285 286 286 286 285 229 215 237 262 280 283 279 259
190 193 198 201 202 199 196 197 198 200 200 197 197 195 190 186 183 173 161 203 203 204 206 206 208 208 207 206 207 211 215 217 215 211 212 213 213 213 213 215 219 219 218 220 224 229 234 235 234 233 234 237 240 241 242 242 241 240 232 221 219 228 245 261 270 278 289 277 268 274 273 268 281 300 301 282 273 278 271 209 185 219 267 282 284 283 272 241
192 191 195 200 200 197 195 195 193 193 193 191 190 188 182 180 180 170 175 203 201 205 203 201 205 207 209 209 207 208 211 214 214 210 211 212 212 212 210 209 211 213 218 219 220 226 229 230 231 232 233 234 236 236 237 237 234 230 223 217 219 235 256 268 268 265 260 263 274 279 272 258 246 267 311 149 151 157 184 193 236 279 288 280 274 270 244 213
196 194 194 195 196 196 195 193 192 191 189 187 187 185 179 177 182 188 200 203 204 210 205 203 203 205 209 210 211 212 211 212 213 213 215 213 212 214 212 212 211 207 214 218 219 225 229 231 232 234 236 234 235 232 226 227 226 225 223 215 211 229 273 263 257 243 233 248 265 261 236 243 250 260 263 208 198 208 224 258 279 286 282 272 262 224 192 208
195 199 200 197 196 197 195 193 192 191 189 187 185 184 181 177 192 200 200 201 205 202 205 210 209 206 207 206 210 215 213 214 215 215 218 218 219 220 218 221 221 219 222 221 219 222 229 234 233 232 233 233 233 228 220 220 222 226 227 218 206 178 106 243 247 288 263 255 254 242 233 247 260 267 267 257 250 248 259 267 267 269 293 270 223 181 215 262
187 193 199 201 200 198 197 195 194 192 190 188 185 183 183 188 204 203 202 203 197 170 198 208 207 204 206 208 211 214 212 214 216 217 218 218 220 221 220 221 222 224 227 227 225 223 224 233 234 232 233 234 235 234 233 235 237 239 237 231 224 217 208 213 208 208 250 266 237 210 220 247 260 268 274 270 251 239 242 215 157 25 320 274 241 250 266 273
185 185 186 194 199 199 196 196 195 194 193 191 188 185 188 198 206 207 207 205 195 171 190 202 204 200 202 207 212 216 215 213 214 216 218 220 221 223 222 221 220 221 222 223 226 226 226 237 243 240 239 241 241 241 240 237 237 240 235 230 230 231 230 232 228 228 242 319 248 216 232 251 257 261 262 258 239 206 180 188 240 301 293 270 259 256 261 270
196 193 186 190 195 194 193 194 195 196 196 193 190 192 199 205 208 211 212 207 203 198 187 188 199 198 196 201 207 213 216 216 214 212 216 222 226 228 228 227 226 225 223 223 222 221 224 235 243 241 239 239 237 238 237 232 230 227 222 225 228 231 231 231 241 250 247 286 261 241 251 260 266 271 268 261 257 250 232 241 269 293 287 273 256 238 248 263
220 217 207 196 192 190 190 190 190 192 195 195 194 201 207 209 210 212 214 212 211 212 202 188 195 199 196 199 204 209 212 214 213 211 214 219 224 229 230 230 230 230 231 231 227 227 230 234 237 236 235 233 227 225 228 230 229 223 222 228 229 227 226 222 227 275 225 258 266 249 254 264 266 268 271 264 245 241 244 260 279 290 287 276 261 250 245 240
231 233 230 213 195 192 191 189 188 189 191 195 201 209 212 211 212 213 213 214 215 218 217 205 199 202 203 203 206 208 210 210 209 211 214 217 224 230 230 231 231 231 234 234 231 232 234 236 237 233 230 228 223 218 218 223 225 225 229 231 224 216 212 207 205 235 218 215 275 258 257 264 260 255 259 260 247 259 274 280 284 288 285 273 258 232 207 211
226 232 234 230 211 198 196 195 195 194 195 198 203 211 214 214 214 214 213 214 215 218 221 215 208 207 210 212 211 209 210 212 211 212 213 217 225 232 233 233 233 234 233 232 231 231 230 232 236 231 226 221 214 212 215 217 217 220 227 228 225 224 213 206 209 215 212 176 253 268 265 261 261 262 266 271 276 282 288 288 288 285 263 231 205 191 198 221
221 226 228 228 226 215 205 201 201 204 210 210 207 211 214 214 215 215 214 214 214 217 219 218 215 213 213 216 218 214 213 216 217 217 217 220 226 233 235 234 234 235 234 232 232 230 226 227 233 229 218 212 213 217 223 224 220 220 222 221 223 224 215 216 221 220 219 202 202 260 274 265 267 274 280 283 286 286 289 290 270 226 200 186 177 192 227 242
222 224 225 224 226 228 220 211 210 211 216 218 216 216 217 216 216 217 215 213 214 217 216 212 213 215 216 217 220 221 219 218 221 222 223 225 228 233 236 236 236 235 231 226 227 227 224 224 229 225 216 220 228 232 235 235 235 235 234 231 231 227 217 213 221 221 219 221 222 205 272 271 272 278 282 285 289 283 285 264 181 166 184 198 199 215 236 246
225 225 224 223 227 229 225 221 221 221 222 222 221 222 224 222 219 218 217 215 215 217 215 209 208 212 217 221 224 225 224 223 223 225 227 230 232 235 238 240 241 240 235 231 232 234 229 226 227 229 232 238 241 237 232 232 234 235 237 239 238 231 222 214 210 218 213 221 236 232 257 268 269 276 279 280 279 268 254 216 197 193 210 216 218 225 235 250
226 225 223 224 230 233 226 221 222 224 228 230 229 228 231 232 227 222 220 217 215 217 216 210 205 205 211 218 223 226 227 227 228 229 231 234 236 237 239 242 241 239 237 235 236 233 224 221 225 229 236 241 240 237 234 231 229 228 230 233 231 228 227 224 227 234 220 219 230 224 246 261 263 269 270 268 261 239 225 239 254 242 224 222 226 231 238 254
226 225 222 218 223 230 227 224 224 225 227 231 235 235 234 235 234 230 226 220 216 217 217 212 208 208 209 212 217 222 225 226 229 233 234 237 239 239 239 240 239 237 235 235 235 230 218 216 219 219 230 242 239 235 230 225 224 226 230 232 232 233 232 228 230 234 232 233 231 217 237 253 255 257 248 229 205 217 231 257 263 238 224 230 235 239 251 266
225 224 221 214 215 226 230 229 230 231 230 231 234 237 237 239 239 234 231 227 221 219 220 218 213 211 212 212 212 215 218 221 226 232 234 236 240 241 239 238 239 238 238 239 241 237 227 223 222 213 203 217 225 225 227 225 223 226 231 233 233 234 232 228 227 223 229 240 234 224 240 251 253 254 252 249 250 255 254 251 254 248 245 251 254 258 269 278
226 224 221 215 215 223 230 232 232 232 233 232 233 236 239 242 243 239 234 232 227 224 226 225 220 215 213 213 212 211 214 219 223 226 229 232 236 239 238 238 240 240 240 239 237 233 229 229 230 229 228 234 241 244 244 239 229 228 236 237 233 232 232 231 226 220 229 238 236 234 243 253 256 253 254 259 261 264 264 261 265 266 262 263 264 268 276 281
226 226 223 216 214 219 223 225 226 228 230 230 232 235 237 239 243 243 240 238 237 235 236 234 229 224 221 216 214 213 211 216 222 224 226 229 232 234 235 236 238 239 239 236 231 228 225 226 232 237 241 248 253 252 250 248 241 240 244 242 237 234 232 228 225 230 235 234 237 244 245 251 258 258 259 264 266 266 267 266 267 266 263 265 268 271 278 281
227 227 225 219 216 218 221 224 226 226 226 226 230 234 237 238 241 242 242 242 243 242 241 239 236 234 231 225 223 221 215 214 219 222 224 226 227 229 230 232 233 234 234 231 227 225 224 227 234 239 243 249 252 249 246 247 248 247 246 245 243 238 233 229 231 239 238 229 238 253 251 252 262 266 266 269 271 271 270 268 266 265 264 266 270 274 279 284
228 228 225 220 220 221 222 225 228 229 226 225 227 232 234 236 238 241 243 242 241 241 240 240 240 241 239 235 233 232 226 220 220 220 221 223 224 226 226 224 225 227 226 224 221 220 222 228 235 237 240 245 248 246 243 242 242 240 237 239 240 237 237 237 239 245 243 237 245 258 259 259 266 270 269 272 275 273 270 270 269 269 270 271 275 281 285 288
227 228 224 222 223 224 224 223 224 227 228 226 227 231 233 235 236 238 240 239 238 240 240 242 245 246 245 243 243 242 235 230 228 226 223 221 220 221 220 216 215 216 216 215 214 215 220 225 230 232 234 240 243 243 239 236 234 231 227 227 230 232 234 237 241 244 243 241 247 254 256 260 265 266 267 271 272 270 269 271 272 274 277 281 286 289 291 292
227 226 225 224 225 225 226 226 223 225 227 225 228 232 232 233 235 236 239 242 242 242 244 246 249 252 251 249 249 249 243 237 237 236 234 232 228 224 220 213 209 208 209 210 210 212 217 221 226 227 229 237 240 240 236 233 234 232 227 226 227 228 229 232 236 239 239 241 245 245 247 257 264 265 267 269 269 269 272 274 276 279 282 286 290 290 289 291
227 227 225 225 226 224 225 227 226 226 228 228 230 234 234 234 235 234 237 242 244 244 246 249 251 255 255 250 248 249 248 249 252 250 249 251 249 242 236 231 224 218 213 212 212 213 216 219 223 223 227 237 239 239 238 236 236 236 236 236 234 230 228 231 235 240 241 242 242 242 248 260 269 269 268 269 269 271 274 277 281 284 286 288 289 287 286 288
Height
3091 3093 3095 3096 3098 3099 3100 3102 3105 3107 3109 3111 3114 3117 3119 3122 3124 3126 3127 3129 3131 3132 3133 3135 3136 3138 3139 3141 3142 3144 3145 3147 3148 3149 3151 3153 3154 3156 3158 3159 3161 3162 3163 3165 3166 3167 3168 3169 3170 3171 3172 3173 3174 3175 3177 3178 3179 3180 3181 3182 3183 3183 3184 3184 3184 3185 3185 3185 3186 3186 3187 3187 3187 3187 3187 3187 3188 3188 3189 3190 3190 3190 3191 3192 3193 3193 3194 3195
3091 3092 3094 3095 3097 3098 3099 3101 3103 3106 3108 3110 3113 3116 3118 3120 3123 3125 3127 3129 3130 3131 3133 3134 3135 3137 3138 3140 3142 3143 3145 3146 3147 3149 3151 3152 3154 3155 3157 3159 3160 3161 3163 3164 3165 3166 3167 3168 3169 3170 3172 3172 3174 3175 3176 3177 3178 3179 3180 3181 3182 3183 3183 3183 3184 3184 3185 3185 3186 3186 3186 3187 3187 3187 3187 3187 3187 3188 3188 3189 3189 3190 3191 3191 3192 3193 3193 3194
3089 3091 3093 3094 3096 3098 3099 3100 3102 3104 3107 3109 3112 3114 3117 3119 3122 3124 3126 3128 3129 3131 3132 3134 3135 3136 3138 3140 3141 3142 3144 3145 3147 3149 3150 3152 3154 3155 3156 3158 3159 3161 3162 3163 3164 3166 3167 3168 3169 3169 3171 3172 3173 3174 3175 3176 3178 3179 3180 3180 3181 3182 3183 3183 3183 3184 3184 3185 3186 3186 3185 3186 3186 3186 3186 3186 3187 3187 3188 3188 3189 3189 3190 3191 3191 3192 3193 3193
3088 3090 3092 3093 3095 3096 3098 3099 3101 3103 3105 3108 3110 3113 3116 3118 3120 3123 3125 3127 3128 3130 3132 3133 3134 3136 3137 3139 3140 3142 3143 3145 3146 3148 3150 3151 3153 3154 3156 3157 3159 3160 3161 3162 3164 3165 3166 3167 3168 3169 3170 3171 3172 3173 3175 3176 3177 3178 3179 3180 3180 3181 3183 3184 3184 3183 3183 3184 3185 3185 3185 3185 3186 3185 3185 3185 3186 3187 3187 3187 3188 3188 3189 3190 3190 3191 3192 3192
3086 3088 3090 3092 3094 3095 3097 3098 3100 3102 3104 3106 3109 3112 3114 3117 3119 3121 3123 3125 3127 3129 3131 3132 3134 3135 3137 3138 3140 3141 3143 3145 3146 3147 3149 3151 3152 3154 3155 3156 3158 3159 3160 3162 3163 3164 3165 3166 3167 3168 3169 3171 3172 3173 3174 3175 3176 3177 3178 3179 3179 3181 3182 3183 3184 3183 3183 3184 3185 3185 3185 3185 3185 3185 3184 3185 3185 3186 3186 3187 3187 3188 3188 3189 3189 3190 3191 3191
3084 3087 3089 3091 3093 3094 3095 3097 3098 3101 3103 3105 3107 3110 3113 3115 3118 3120 3122 3124 3126 3128 3130 3131 3133 3134 3136 3137 3139 3140 3142 3144 3145 3147 3148 3150 3151 3153 3154 3156 3157 3158 3160 3161 3162 3163 3165 3166 3167 3168 3169 3170 3171 3172 3173 3174 3175 3176 3177 3178 3179 3180 3181 3182 3183 3183 3183 3183 3184 3185 3185 3184 3184 3183 3184 3184 3184 3184 3185 3186 3187 3187 3188 3188 3188 3189 3190 3191
3082 3085 3087 3089 3091 3093 3094 3095 3097 3099 3101 3103 3106 3108 3111 3114 3116 3119 3121 3123 3125 3127 3129 3130 3132 3134 3135 3137 3138 3140 3142 3143 3144 3146 3147 3149 3150 3152 3153 3155 3156 3157 3159 3160 3161 3162 3164 3165 3166 3167 3168 3169 3170 3171 3172 3174 3174 3175 3176 3177 3178 3179 3180 3181 3182 3182 3182 3183 3183 3184 3184 3184 3183 3183 3183 3184 3184 3183 3184 3184 3185 3186 3187 3187 3188 3188 3189 3190
3080 3083 3085 3088 3090 3091 3093 3094 3096 3098 3100 3102 3104 3107 3109 3112 3115 3117 3120 3122 3124 3126 3128 3129 3131 3133 3134 3136 3137 3139 3141 3143 3144 3145 3147 3148 3150 3151 3152 3154 3155 3157 3158 3159 3160 3161 3163 3164 3165 3166 3166 3168 3168 3170 3171 3173 3173 3174 3175 3176 3177 3178 3179 3180 3180 3181 3181 3182 3182 3183 3183 3183 3183 3182 3183 3184 3183 3183 3183 3183 3184 3184 3185 3186 3187 3187 3188 3189
3078 3080 3083 3086 3088 3090 3092 3093 3095 3097 3099 3100 3102 3105 3108 3110 3113 3116 3118 3120 3123 3125 3126 3128 3130 3132 3133 3135 3136 3138 3140 3142 3143 3144 3146 3147 3149 3150 3152 3153 3154 3156 3157 3158 3159 3161 3162 3163 3163 3164 3165 3166 3168 3169 3170 3172 3172 3173 3174 3175 3177 3177 3178 3179 3179 3180 3180 3181 3181 3182 3182 3182 3182 3182 3182 3183 3183 3182 3182 3182 3183 3183 3184 3185 3186 3186 3187 3187
3075 3078 3081 3084 3086 3089 3091 3092 3094 3096 3097 3099 3101 3103 3106 3109 3111 3114 3117 3119 3121 3123 3125 3127 3129 3130 3132 3133 3135 3137 3139 3141 3142 3144 3145 3146 3148 3150 3151 3152 3153 3155 3156 3158 3159 3160 3161 3162 3163 3164 3165 3166 3167 3168 3170 3171 3171 3172 3173 3175 3176 3176 3177 3177 3178 3179 3179 3180 3180 3181 3181 3181 3181 3181 3182 3182 3182 3181 3181 3182 3182 3182 3183 3184 3185 3185 3186 3186
3072 3076 3079 3082 3085 3087 3089 3091 3092 3094 3096 3098 3100 3102 3105 3107 3110 3112 3115 3117 3119 3121 3123 3125 3127 3129 3130 3132 3134 3137 3138 3140 3142 3143 3144 3146 3147 3148 3150 3151 3152 3154 3155 3157 3158 3159 3160 3161 3163 3164 3164 3165 3167 3168 3169 3170 3170 3172 3173 3174 3175 3175 3176 3176 3177 3178 3178 3179 3179 3179 3180 3180 3180 3180 3180 3180 3180 3181 3180 3181 3181 3182 3182 3182 3183 3184 3184 3185
3069 3073 3077 3080 3082 3085 3088 3090 3091 3093 3095 3097 3099 3101 3103 3105 3108 3110 3113 3115 3118 3120 3122 3124 3126 3127 3129 3131 3134 3136 3137 3139 3140 3142 3143 3145 3146 3147 3149 3150 3151 3153 3155 3156 3157 3158 3159 3161 3162 3163 3164 3165 3166 3167 3168 3169 3170 3171 3172 3173 3174 3174 3175 3175 3176 3176 3177 3178 3178 3178 3178 3178 3178 3179 3179 3179 3179 3179 3179 3180 3181 3181 3181 3181 3181 3182 3183 3183
3067 3070 3074 3077 3080 3083 3086 3088 3090 3092 3094 3096 3098 3100 3102 3104 3106 3109 3111 3114 3116 3118 3120 3122 3124 3126 3128 3130 3132 3134 3135 3137 3139 3141 3142 3144 3145 3146 3148 3149 3150 3152 3154 3155 3156 3157 3159 3160 3161 3162 3163 3164 3166 3166 3167 3168 3169 3171 3171 3172 3173 3173 3174 3174 3175 3175 3176 3177 3176 3177 3177 3177 3177 3177 3177 3177 3177 3178 3178 3179 3179 3180 3180 3180 3180 3181 3181 3181
3064 3068 3071 3074 3078 3081 3084 3086 3088 3090 3092 3094 3096 3098 3100 3103 3105 3107 3110 3112 3114 3117 3119 3121 3123 3125 3126 3128 3131 3132 3134 3136 3138 3139 3141 3143 3144 3146 3147 3148 3150 3151 3153 3154 3155 3156 3158 3159 3160 3161 3162 3164 3165 3166 3166 3167 3169 3170 3170 3171 3172 3172 3173 3173 3174 3174 3175 3175 3175 3175 3175 3175 3176 3176 3176 3176 3176 3177 3177 3177 3177 3178 3179 3179 3179 3179 3179 3180
3062 3065 3068 3072 3075 3079 3082 3084 3087 3089 3091 3093 3095 3097 3099 3101 3104 3106 3109 3111 3113 3115 3117 3120 3121 3123 3125 3127 3129 3131 3132 3134 3136 3138 3140 3142 3143 3145 3146 3147 3149 3150 3152 3153 3154 3155 3157 3158 3159 3160 3161 3163 3164 3165 3166 3167 3168 3169 3170 3170 3171 3171 3171 3172 3172 3172 3173 3174 3174 3174 3173 3173 3174 3174 3174 3175 3175 3176 3176 3176 3176 3176 3177 3177 3177 3178 3178 3178
3059 3063 3066 3070 3073 3076 3079 3082 3085 3087 3089 3092 3094 3096 3098 3100 3102 3105 3107 3109 3112 3114 3116 3118 3119 3121 3123 3125 3127 3128 3130 3133 3135 3137 3138 3140 3142 3144 3145 3147 3148 3149 3151 3152 3153 3154 3156 3157 3158 3159 3160 3162 3163 3164 3165 3166 3167 3167 3169 3170 3170 3170 3170 3171 3171 3171 3172 3172 3172 3172 3171 3171 3172 3173 3173 3173 3174 3174 3174 3175 3175 3175 3175 3175 3175 3176 3176 3176
3057 3061 3064 3068 3071 3074 3077 3080 3083 3086 3088 3090 3092 3094 3096 3099 3101 3103 3105 3108 3110 3112 3114 3116 3117 3120 3121 3122 3124 3126 3129 3132 3134 3136 3137 3139 3141 3142 3144 3145 3147 3148 3150 3151 3152 3153 3155 3156 3157 3158 3159 3161 3162 3163 3164 3165 3166 3166 3167 3168 3169 3169 3169 3170 3170 3170 3170 3170 3171 3170 3169 3170 3171 3172 3172 3172 3172 3171 3172 3173 3173 3173 3173 3173 3173 3173 3174 3174
3056 3059 3062 3066 3069 3072 3075 3078 3081 3084 3086 3088 3090 3092 3094 3097 3099 3101 3103 3106 3108 3110 3112 3114 3115 3117 3118 3118 3121 3124 3127 3130 3132 3134 3136 3138 3140 3141 3143 3144 3146 3147 3148 3150 3151 3152 3153 3154 3156 3157 3158 3159 3160 3161 3162 3163 3164 3165 3166 3167 3168 3168 3168 3169 3169 3169 3169 3169 3169 3168 3167 3167 3169 3170 3170 3171 3170 3169 3169 3170 3171 3171 3171 3171 3171 3171 3171 3171
3054 3057 3060 3064 3067 3070 3073 3076 3079 3081 3084 3086 3088 3090 3092 3095 3097 3099 3101 3103 3105 3107 3109 3110 3111 3113 3114 3117 3120 3123 3126 3129 3130 3132 3134 3136 3138 3140 3141 3143 3144 3145 3147 3148 3149 3150 3152 3153 3154 3155 3156 3158 3159 3160 3161 3163 3163 3164 3165 3166 3166 3167 3167 3167 3168 3168 3168 3167 3167 3166 3165 3165 3166 3167 3168 3169 3169 3167 3167 3168 3169 3169 3170 3170 3169 3169 3169 3169
3052 3055 3058 3062 3065 3068 3071 3074 3076 3079 3081 3083 3086 3088 3090 3091 3093 3095 3097 3100 3102 3104 3105 3107 3109 3112 3114 3117 3120 3122 3124 3126 3128 3131 3133 3135 3137 3138 3140 3141 3142 3144 3145 3147 3148 3149 3150 3151 3152 3153 3155 3157 3158 3160 3161 3162 3163 3163 3164 3165 3165 3166 3166 3166 3167 3166 3166 3166 3165 3164 3163 3162 3163 3165 3166 3167 3167 3165 3165 3166 3167 3168 3167 3168 3168 3167 3168 3168
3051 3054 3057 3060 3063 3066 3069 3072 3074 3076 3079 3081 3084 3085 3087 3088 3090 3092 3095 3098 3100 3102 3104 3106 3108 3111 3113 3116 3118 3120 3123 3124 3126 3129 3131 3133 3135 3136 3138 3139 3140 3142 3144 3145 3146 3148 3149 3149 3151 3153 3155 3156 3158 3159 3160 3161 3162 3162 3163 3164 3164 3165 3165 3165 3166 3165 3165 3164 3163 3163 3161 3159 3160 3162 3163 3164 3164 3164 3164 3164 3165 3165 3165 3165 3165 3165 3165 3166
3049 3052 3055 3058 3061 3064 3067 3070 3072 3075 3077 3080 3082 3084 3086 3088 3091 3093 3096 3098 3099 3101 3103 3105 3107 3109 3112 3115 3117 3118 3120 3122 3124 3127 3129 3131 3132 3134 3136 3137 3139 3141 3142 3143 3145 3146 3146 3148 3151 3153 3154 3154 3156 3157 3158 3160 3161 3161 3162 3163 3163 3164 3164 3164 3165 3164 3164 3162 3161 3161 3159 3156 3157 3159 3161 3162 3162 3162 3162 3163 3163 3163 3163 3163 3163 3163 3163 3163
3047 3050 3053 3056 3059 3062 3065 3068 3070 3073 3075 3078 3080 3083 3085 3088 3091 3093 3096 3098 3099 3100 3102 3103 3105 3108 3111 3113 3115 3117 3118 3120 3123 3125 3127 3128 3130 3133 3134 3136 3138 3139 3140 3141 3143 3144 3145 3148 3150 3151 3152 3153 3154 3156 3157 3158 3159 3160 3161 3161 3162 3163 3163 3163 3163 3163 3163 3161 3160 3159 3156 3153 3153 3155 3157 3158 3158 3159 3160 3160 3161 3161 3161 3161 3161 3160 3160 3161
3045 3048 3051 3054 3057 3060 3063 3066 3069 3071 3074 3077 3079 3081 3084 3087 3090 3092 3094 3096 3097 3098 3100 3102 3104 3107 3109 3111 3114 3116 3117 3119 3121 3123 3125 3127 3129 3131 3132 3135 3137 3137 3138 3140 3142 3143 3145 3147 3148 3149 3151 3152 3153 3154 3156 3157 3158 3158 3159 3160 3161 3162 3162 3161 3161 3162 3161 3160 3159 3158 3153 3149 3150 3152 3153 3155 3155 3156 3158 3158 3159 3159 3159 3159 3158 3158 3158 3158
3043 3047 3049 3052 3055 3058 3061 3064 3067 3070 3072 3075 3077 3080 3083 3085 3088 3091 3093 3095 3095 3096 3098 3100 3102 3104 3107 3110 3112 3114 3115 3117 3119 3121 3123 3126 3127 3129 3131 3133 3134 3135 3137 3139 3141 3142 3143 3145 3146 3148 3149 3150 3152 3153 3154 3156 3157 3157 3157 3158 3159 3160 3160 3160 3160 3160 3160 3158 3157 3157 3154 3146 3146 3149 3150 3151 3152 3153 3155 3156 3157 3157 3156 3156 3156 3156 3156 3156
3041 3045 3047 3050 3053 3056 3059 3061 3064 3068 3070 3073 3076 3078 3081 3083 3086 3089 3091 3093 3092 3092 3094 3096 3098 3101 3103 3106 3109 3111 3113 3114 3117 3119 3121 3123 3125 3126 3129 3131 3132 3134 3136 3138 3140 3140 3141 3143 3144 3146 3148 3149 3150 3151 3153 3154 3155 3156 3156 3157 3158 3158 3159 3158 3158 3159 3158 3157 3155 3157 3155 3146 3141 3144 3147 3149 3149 3150 3152 3153 3154 3155 3154 3154 3154 3153 3154 3154
3039 3043 3045 3048 3051 3053 3056 3059 3062 3065 3067 3071 3073 3076 3079 3081 3085 3087 3090 3092 3089 3087 3090 3092 3094 3096 3099 3103 3105 3108 3109 3110 3114 3117 3118 3121 3122 3124 3127 3128 3130 3133 3134 3137 3137 3136 3138 3141 3142 3144 3146 3146 3147 3149 3151 3153 3154 3154 3154 3156 3157 3157 3158 3157 3157 3157 3156 3155 3153 3153 3155 3147 3137 3137 3143 3145 3145 3146 3148 3149 3150 3152 3152 3151 3151 3151 3152 3152
3037 3041 3044 3046 3048 3051 3054 3057 3060 3063 3066 3069 3071 3074 3077 3079 3083 3085 3089 3091 3085 3082 3086 3088 3091 3094 3097 3101 3103 3105 3105 3107 3111 3114 3115 3118 3120 3122 3125 3126 3129 3132 3133 3134 3134 3134 3137 3139 3141 3142 3144 3144 3145 3148 3150 3151 3152 3152 3153 3154 3155 3156 3156 3156 3156 3156 3155 3153 3149 3149 3153 3148 3134 3132 3138 3140 3140 3142 3143 3145 3147 3148 3149 3149 3149 3149 3150 3150
3036 3039 3041 3044 3046 3048 3051 3055 3058 3061 3064 3067 3069 3072 3074 3078 3081 3084 3088 3087 3080 3078 3082 3084 3088 3090 3093 3097 3099 3101 3102 3105 3109 3111 3113 3116 3118 3121 3123 3125 3128 3130 3132 3132 3133 3134 3135 3137 3139 3140 3141 3142 3144 3146 3148 3149 3150 3150 3152 3152 3154 3154 3154 3156 3155 3155 3155 3151 3145 3146 3151 3147 3132 3127 3134 3135 3136 3138 3140 3142 3144 3145 3146 3146 3146 3147 3147 3148
3034 3037 3039 3041 3044 3047 3050 3052 3056 3059 3062 3065 3067 3070 3073 3076 3078 3082 3085 3081 3075 3076 3078 3080 3083 3086 3089 3092 3094 3096 3099 3102 3106 3109 3111 3113 3115 3119 3121 3123 3126 3128 3129 3130 3131 3132 3133 3135 3137 3137 3139 3140 3142 3144 3145 3147 3148 3148 3150 3151 3153 3154 3154 3155 3154 3154 3155 3147 3142 3144 3148 3147 3135 3125 3128 3131 3132 3135 3137 3140 3141 3142 3143 3143 3144 3144 3144 3145
3032 3034 3036 3039 3042 3045 3048 3051 3054 3057 3060 3062 3065 3068 3071 3074 3076 3078 3078 3074 3072 3074 3074 3076 3079 3081 3084 3087 3088 3092 3095 3099 3103 3106 3107 3109 3112 3115 3118 3120 3122 3124 3126 3127 3128 3129 3130 3132 3133 3134 3136 3137 3139 3141 3142 3144 3145 3146 3148 3150 3152 3153 3153 3154 3152 3153 3153 3144 3141 3143 3146 3147 3135 3124 3126 3129 3130 3133 3135 3137 3139 3139 3139 3140 3140 3141 3141 3142
3029 3031 3034 3037 3040 3043 3046 3049 3052 3055 3058 3060 3063 3065 3068 3071 3072 3071 3070 3070 3070 3069 3070 3072 3075 3077 3081 3084 3087 3089 3092 3095 3099 3103 3104 3107 3109 3111 3113 3115 3117 3120 3122 3122 3125 3126 3127 3129 3130 3132 3133 3134 3136 3138 3140 3142 3143 3145 3147 3149 3152 3153 3153 3152 3150 3150 3148 3142 3141 3143 3145 3141 3128 3122 3127 3128 3128 3131 3133 3134 3136 3136 3136 3136 3137 3138 3139 3141
3026 3030 3032 3035 3037 3040 3043 3046 3050 3053 3056 3058 3061 3063 3065 3066 3065 3063 3064 3066 3066 3064 3067 3070 3072 3075 3079 3082 3085 3087 3090 3093 3096 3099 3102 3105 3107 3109 3111 3113 3114 3116 3117 3119 3122 3123 3125 3126 3126 3128 3129 3131 3133 3134 3136 3138 3141 3142 3143 3146 3148 3151 3153 3151 3149 3148 3144 3140 3140 3142 3144 3134 3121 3121 3125 3125 3127 3129 3130 3131 3132 3134 3135 3135 3136 3138 3139 3140
3021 3026 3029 3032 3035 3038 3040 3044 3047 3050 3054 3056 3058 3060 3062 3061 3059 3059 3060 3061 3062 3063 3065 3067 3070 3074 3077 3079 3082 3084 3088 3091 3093 3096 3099 3101 3103 3104 3106 3109 3110 3112 3115 3117 3118 3119 3121 3121 3121 3123 3125 3127 3129 3131 3134 3137 3139 3139 3140 3143 3144 3144 3145 3144 3145 3144 3141 3139 3139 3141 3139 3127 3119 3121 3121 3122 3125 3126 3127 3129 3130 3132 3135 3136 3136 3137 3137 3137
3018 3021 3024 3028 3031 3034 3037 3040 3043 3047 3050 3052 3055 3056 3055 3054 3054 3055 3056 3058 3061 3062 3063 3066 3069 3072 3075 3078 3080 3082 3085 3087 3090 3094 3095 3096 3097 3098 3101 3104 3106 3109 3111 3114 3114 3115 3117 3116 3117 3121 3123 3125 3127 3130 3133 3135 3136 3137 3139 3140 3138 3137 3139 3141 3141 3140 3139 3139 3137 3135 3129 3119 3117 3119 3119 3122 3123 3125 3127 3127 3128 3131 3132 3134 3134 3134 3135 3135
3015 3017 3019 3022 3026 3031 3034 3037 3040 3044 3046 3048 3051 3050 3048 3048 3049 3051 3053 3056 3059 3061 3062 3065 3068 3070 3072 3075 3077 3079 3082 3084 3087 3090 3091 3093 3094 3095 3098 3100 3102 3105 3106 3108 3110 3112 3114 3114 3116 3119 3120 3122 3125 3127 3129 3131 3132 3134 3134 3132 3132 3134 3137 3140 3139 3137 3139 3139 3132 3127 3122 3116 3116 3115 3114 3119 3121 3122 3125 3125 3127 3129 3129 3130 3131 3131 3133 3133
3011 3014 3016 3019 3023 3027 3030 3033 3037 3039 3041 3044 3045 3043 3042 3045 3048 3050 3053 3055 3058 3060 3061 3063 3065 3067 3069 3071 3073 3075 3078 3081 3084 3086 3088 3090 3091 3091 3094 3096 3099 3101 3103 3106 3108 3109 3111 3113 3113 3115 3117 3119 3122 3124 3125 3127 3128 3128 3127 3127 3130 3134 3135 3137 3138 3137 3139 3137 3128 3122 3118 3115 3116 3111 3109 3115 3117 3118 3122 3123 3125 3126 3126 3128 3128 3129 3130 3130
3010 3012 3014 3016 3020 3024 3026 3029 3032 3035 3038 3039 3039 3039 3040 3044 3047 3049 3051 3053 3055 3057 3058 3060 3063 3065 3067 3068 3070 3073 3075 3078 3080 3083 3085 3087 3087 3087 3089 3092 3095 3098 3100 3105 3107 3107 3110 3111 3111 3112 3114 3116 3119 3121 3121 3122 3123 3123 3123 3126 3129 3130 3131 3133 3135 3134 3135 3136 3126 3117 3115 3112 3108 3105 3107 3113 3116 3117 3119 3120 3121 3122 3123 3124 3125 3126 3127 3127
3009 3011 3012 3014 3017 3020 3024 3026 3028 3031 3032 3032 3033 3034 3037 3041 3044 3047 3050 3051 3053 3055 3056 3058 3061 3064 3065 3066 3068 3070 3072 3074 3076 3078 3081 3083 3083 3083 3086 3089 3092 3095 3098 3101 3103 3104 3107 3108 3108 3108 3110 3113 3115 3115 3114 3114 3117 3119 3122 3124 3125 3126 3127 3128 3129 3128 3129 3131 3125 3117 3112 3104 3098 3101 3106 3111 3113 3114 3115 3115 3116 3117 3119 3120 3122 3123 3124 3124
3008 3009 3011 3013 3014 3017 3020 3023 3025 3026 3027 3028 3029 3030 3033 3037 3041 3044 3047 3049 3050 3052 3054 3056 3059 3061 3063 3065 3066 3068 3070 3072 3074 3075 3077 3079 3080 3080 3083 3086 3088 3091 3095 3097 3099 3102 3104 3104 3104 3104 3107 3108 3107 3107 3107 3108 3113 3115 3117 3120 3120 3122 3124 3124 3125 3124 3123 3125 3124 3120 3111 3095 3092 3101 3104 3107 3110 3110 3111 3112 3112 3114 3115 3117 3119 3120 3121 3121
3006 3007 3009 3011 3012 3014 3017 3020 3020 3021 3022 3025 3027 3028 3031 3035 3038 3041 3044 3047 3048 3049 3051 3054 3056 3058 3061 3062 3064 3066 3068 3070 3071 3073 3073 3075 3076 3077 3079 3083 3085 3088 3091 3093 3095 3097 3100 3100 3100 3101 3102 3101 3101 3104 3106 3108 3110 3110 3111 3113 3113 3115 3118 3120 3120 3118 3119 3121 3120 3121 3110 3090 3090 3101 3101 3104 3107 3107 3109 3110 3110 3112 3114 3116 3116 3117 3118 3118
3002 3004 3006 3008 3009 3011 3015 3016 3017 3018 3020 3022 3024 3026 3028 3032 3035 3039 3041 3044 3046 3047 3049 3052 3054 3056 3058 3059 3061 3063 3066 3067 3068 3069 3070 3072 3073 3075 3078 3080 3083 3085 3086 3088 3090 3092 3095 3096 3096 3096 3096 3097 3099 3102 3104 3105 3107 3107 3107 3107 3108 3110 3110 3111 3113 3113 3117 3118 3115 3118 3110 3088 3088 3099 3099 3101 3105 3105 3107 3109 3109 3111 3112 3113 3114 3114 3115 3114
2999 3001 3004 3006 3007 3009 3012 3014 3014 3016 3017 3020 3022 3024 3026 3029 3032 3035 3037 3041 3043 3045 3047 3049 3051 3053 3055 3056 3058 3060 3062 3064 3065 3066 3067 3069 3070 3073 3076 3078 3080 3082 3083 3084 3086 3089 3092 3093 3093 3093 3093 3094 3096 3099 3100 3102 3103 3103 3102 3102 3104 3105 3105 3107 3111 3111 3113 3112 3110 3115 3107 3087 3086 3097 3098 3099 3102 3103 3105 3106 3108 3109 3109 3110 3111 3110 3110 3110
2996 2999 3001 3004 3005 3006 3007 3009 3011 3012 3014 3017 3019 3020 3023 3025 3028 3030 3033 3036 3039 3040 3043 3045 3048 3050 3051 3053 3055 3056 3059 3060 3061 3063 3065 3066 3067 3070 3073 3075 3076 3078 3079 3080 3082 3085 3086 3087 3089 3091 3092 3093 3093 3094 3094 3095 3096 3096 3097 3099 3100 3102 3105 3107 3109 3109 3109 3106 3104 3107 3098 3084 3086 3094 3096 3098 3100 3100 3103 3104 3105 3107 3107 3108 3108 3107 3106 3107
2993 2995 2998 3001 3003 3003 3004 3006 3008 3010 3012 3014 3016 3018 3020 3021 3024 3027 3030 3032 3034 3036 3038 3041 3044 3046 3048 3050 3051 3053 3054 3056 3057 3059 3061 3062 3064 3066 3069 3071 3072 3073 3076 3078 3080 3081 3081 3081 3082 3084 3085 3085 3084 3083 3083 3086 3090 3092 3093 3094 3095 3098 3100 3101 3104 3105 3102 3097 3097 3096 3089 3081 3086 3091 3093 3095 3097 3098 3101 3102 3103 3105 3105 3105 3104 3103 3103 3103
2990 2991 2994 2997 3000 3001 3002 3004 3006 3007 3008 3011 3013 3014 3016 3018 3020 3023 3026 3028 3030 3033 3035 3037 3040 3042 3044 3046 3048 3049 3050 3052 3053 3055 3056 3058 3060 3062 3064 3066 3068 3070 3072 3075 3076 3077 3077 3075 3076 3076 3075 3074 3074 3075 3078 3082 3085 3086 3085 3087 3089 3092 3094 3096 3098 3096 3091 3090 3089 3087 3084 3081 3082 3087 3090 3091 3094 3095 3097 3099 3100 3100 3101 3100 3099 3099 3098 3099
2986 2988 2990 2993 2996 2997 2998 3000 3002 3003 3004 3006 3008 3009 3012 3014 3016 3019 3022 3024 3027 3030 3031 3033 3035 3037 3039 3041 3043 3044 3046 3048 3048 3050 3052 3054 3056 3057 3059 3062 3064 3065 3067 3070 3071 3072 3072 3070 3071 3071 3070 3071 3072 3074 3077 3078 3078 3079 3080 3082 3084 3086 3088 3090 3088 3084 3084 3087 3082 3080 3084 3080 3074 3080 3088 3089 3090 3092 3093 3094 3095 3095 3095 3095 3094 3094 3094 3095
2982 2984 2987 2990 2992 2992 2993 2995 2997 2999 3002 3003 3005 3006 3008 3011 3013 3015 3018 3021 3023 3026 3028 3029 3030 3032 3035 3038 3039 3040 3042 3043 3043 3045 3047 3050 3052 3053 3055 3057 3059 3060 3062 3064 3066 3067 3066 3066 3068 3068 3068 3069 3071 3072 3073 3073 3074 3075 3077 3078 3079 3081 3081 3080 3078 3077 3079 3080 3076 3076 3082 3076 3070 3076 3084 3086 3087 3089 3089 3090 3090 3090 3090 3090 3090 3091 3091 3091
2979 2981 2984 2986 2987 2988 2990 2992 2994 2996 2999 3001 3002 3003 3004 3007 3009 3011 3014 3018 3019 3021 3023 3024 3025 3028 3032 3034 3035 3035 3037 3038 3039 3040 3044 3046 3048 3050 3052 3054 3055 3056 3058 3059 3060 3062 3062 3063 3064 3065 3065 3066 3067 3068 3069 3069 3070 3070 3071 3073 3074 3075 3074 3072 3071 3072 3075 3075 3074 3075 3075 3070 3069 3074 3079 3081 3084 3085 3084 3084 3084 3084 3085 3087 3087 3087 3087 3087
2975 2977 2980 2982 2984 2985 2987 2989 2991 2993 2995 2998 2998 2999 3001 3003 3005 3008 3010 3012 3014 3017 3019 3020 3022 3025 3028 3030 3031 3031 3033 3036 3037 3039 3041 3043 3044 3046 3048 3049 3050 3051 3053 3054 3056 3057 3058 3059 3060 3062 3062 3062 3062 3064 3065 3065 3065 3066 3067 3068 3069 3068 3067 3066 3066 3069 3072 3071 3071 3072 3070 3064 3066 3072 3075 3077 3078 3078 3078 3079 3080 3081 3082 3083 3083 3082 3081 3081
2971 2973 2976 2978 2980 2982 2983 2985 2987 2989 2990 2993 2993 2995 2997 2999 3001 3005 3007 3008 3011 3013 3015 3017 3019 3022 3024 3026 3027 3028 3031 3034 3035 3037 3039 3039 3041 3043 3044 3045 3046 3047 3049 3050 3051 3052 3054 3054 3056 3058 3058 3056 3057 3059 3060 3061 3062 3062 3061 3061 3060 3059 3059 3060 3063 3065 3065 3064 3066 3068 3064 3057 3060 3069 3073 3072 3072 3073 3073 3074 3076 3077 3077 3077 3077 3076 3075 3075
2967 2969 2971 2974 2975 2978 2980 2981 2984 2985 2985 2987 2989 2991 2993 2996 2999 3003 3005 3006 3008 3010 3012 3014 3017 3019 3020 3021 3022 3024 3028 3031 3033 3035 3036 3036 3037 3039 3039 3040 3043 3044 3045 3046 3046 3047 3049 3050 3051 3053 3053 3051 3053 3055 3056 3058 3059 3055 3051 3051 3052 3053 3055 3056 3058 3058 3059 3060 3061 3061 3058 3056 3060 3066 3066 3066 3068 3069 3070 3070 3070 3071 3071 3072 3072 3070 3069 3069